Rugby, ND

4:50 AM CST on December 08, 2019 (GMT -0600)
Rugby Municipal

Weather History for KRUG - October, 2019

Change the Weather History Date:

Tuesday, October 1, 2019

  Actual Average Record
Temperature  
Mean Temperature 38 °F -  
Max Temperature 42 °F 65 °F 88 °F (1953)
Min Temperature 35 °F 37 °F 12 °F (1985)
Degree Days  
Heating Degree Days 26    
Moisture  
Dew Point 36 °F    
Average Humidity 90    
Maximum Humidity 100    
Minimum Humidity 70    
Precipitation  
Precipitation 0.00 in - - ()
Sea Level Pressure  
Sea Level Pressure 30.17 in    
Wind  
Wind Speed 11 mph (North)    
Max Wind Speed 17 mph    
Max Gust Speed 20 mph    
Visibility 10 miles    
Events      
Averages and records for this station are not official NWS values.
T = Trace of Precipitation, MM = Missing Value Source: NWS Daily Summary

Daily Weather History Graph

Daily Weather History Graph

Search for Another Location

Airport or City:

Astronomy

Oct. 01, 2019 Rise Set
Actual Time 7:39 AM CDT 7:19 PM CDT
Civil Twilight 7:08 AM CDT 7:50 PM CDT
Nautical Twilight 6:31 AM CDT 8:26 PM CDT
Astronomical Twilight 5:54 AM CDT 9:03 PM CDT
Moon 11:11 AM CDT (10/1) 9:17 PM CDT (10/1)
Length of Visible Light 12h 42m
Length of Day
11h 40m
Waxing Crescent, 12% of the Moon is Illuminated
Oct 1
Waxing Crescent
Oct 5
First Quarter
Oct 13
Full
Oct 21
Last Quarter
Oct 27
New

Hourly Weather History & Observations

Time (CDT) Temp. Windchill Dew Point Humidity Pressure Visibility Wind Dir Wind Speed Gust Speed Precip Events Conditions
12:15 AM 37.4 °F 29.3 °F 37.4 °F 100% 30.05 in 10.0 mi WNW 12.7 mph - N/A   Overcast
12:35 AM 37.4 °F 28.2 °F 37.4 °F 100% 30.04 in 10.0 mi NW 16.1 mph - N/A   Overcast
12:55 AM 37.4 °F 27.8 °F 37.4 °F 100% 30.04 in 10.0 mi NW 17.3 mph - N/A   Overcast
1:15 AM 37.4 °F 29.3 °F 37.4 °F 100% 30.04 in 10.0 mi NW 12.7 mph 19.6 mph N/A   Overcast
1:35 AM 37.4 °F 28.2 °F 37.4 °F 100% 30.04 in 10.0 mi NW 16.1 mph - N/A   Overcast
1:55 AM 35.6 °F 27.5 °F 35.6 °F 100% 30.04 in 10.0 mi NW 11.5 mph - N/A   Overcast
2:15 AM 37.4 °F 30.3 °F 37.4 °F 100% 30.05 in 10.0 mi NNW 10.4 mph - N/A   Overcast
2:35 AM 35.6 °F 28.6 °F 35.6 °F 100% 30.07 in 10.0 mi WNW 9.2 mph - N/A   Overcast
2:55 AM - - - N/A% 30.08 in 10.0 mi NW 11.5 mph - N/A   Overcast
3:15 AM - - - N/A% 30.09 in 10.0 mi NW 10.4 mph - N/A   Overcast
3:35 AM - - - N/A% 30.10 in 10.0 mi NW 10.4 mph - N/A   Overcast
3:55 AM 35.6 °F 27.1 °F 35.6 °F 100% 30.11 in 10.0 mi WNW 12.7 mph - N/A   Overcast
4:15 AM 35.6 °F 27.5 °F 35.6 °F 100% 30.12 in 10.0 mi WNW 11.5 mph - N/A   Overcast
4:35 AM - - - N/A% 30.13 in 10.0 mi WNW 8.1 mph - N/A   Unknown
4:55 AM 35.6 °F 27.5 °F 35.6 °F 100% 30.13 in 8.0 mi NW 11.5 mph - N/A   Overcast
5:15 AM 35.6 °F 28.0 °F 35.6 °F 100% 30.13 in 9.0 mi NW 10.4 mph 16.1 mph N/A   Overcast
5:35 AM 35.6 °F 28.6 °F 35.6 °F 100% 30.14 in 10.0 mi NW 9.2 mph - N/A   Mostly Cloudy
5:55 AM 35.6 °F 26.6 °F 35.6 °F 100% 30.13 in 10.0 mi NW 13.8 mph - N/A   Overcast
6:15 AM 35.6 °F 28.0 °F 35.6 °F 100% 30.14 in 10.0 mi NW 10.4 mph - N/A   Overcast
6:35 AM 35.6 °F 29.2 °F 35.6 °F 100% 30.14 in 10.0 mi NW 8.1 mph - N/A   Overcast
6:55 AM 35.6 °F 30.7 °F 35.6 °F 100% 30.15 in 10.0 mi WNW 5.8 mph - N/A   Overcast
7:15 AM 35.6 °F 29.9 °F 35.6 °F 100% 30.16 in 10.0 mi NW 6.9 mph - N/A   Overcast
7:35 AM 35.6 °F 29.9 °F 35.6 °F 100% 30.17 in 10.0 mi NW 6.9 mph - N/A   Overcast
7:55 AM 35.6 °F 28.0 °F 35.6 °F 100% 30.16 in 10.0 mi NW 10.4 mph - N/A   Overcast
8:15 AM 35.6 °F 27.5 °F 35.6 °F 100% 30.16 in 10.0 mi NW 11.5 mph - N/A   Overcast
8:35 AM 35.6 °F 28.0 °F 35.6 °F 100% 30.17 in 10.0 mi NNW 10.4 mph - N/A   Overcast
8:55 AM 35.6 °F 28.0 °F 35.6 °F 100% 30.17 in 10.0 mi NNW 10.4 mph - N/A   Overcast
9:15 AM 35.6 °F 28.6 °F 35.6 °F 100% 30.18 in 10.0 mi NNW 9.2 mph - N/A   Overcast
9:35 AM 35.6 °F 28.0 °F 35.6 °F 100% 30.19 in 10.0 mi NNW 10.4 mph - N/A   Overcast
9:55 AM 35.6 °F 29.2 °F 35.6 °F 100% 30.19 in 10.0 mi NNW 8.1 mph - N/A   Overcast
10:15 AM 35.6 °F 28.0 °F 35.6 °F 100% 30.19 in 10.0 mi NW 10.4 mph - N/A   Overcast
10:35 AM - - - N/A% 30.21 in 10.0 mi NNW 8.1 mph - N/A   Scattered Clouds
10:55 AM - - - N/A% 30.21 in 10.0 mi North - - N/A   Mostly Cloudy
11:15 AM 37.4 °F 32.1 °F 37.4 °F 100% 30.22 in 10.0 mi NW 6.9 mph - N/A   Mostly Cloudy
11:35 AM 37.4 °F 31.4 °F 37.4 °F 100% 30.21 in 10.0 mi NW 8.1 mph - N/A   Mostly Cloudy
11:55 AM 39.2 °F 33.0 °F 37.4 °F 93% 30.21 in 10.0 mi NNW 9.2 mph - N/A   Overcast
12:15 PM 39.2 °F 33.6 °F 37.4 °F 93% 30.21 in 10.0 mi North 8.1 mph - N/A   Mostly Cloudy
1:15 PM 41.0 °F 36.4 °F 35.6 °F 81% 30.20 in 10.0 mi NNE 6.9 mph - N/A   Overcast
1:35 PM 41.0 °F 35.2 °F 35.6 °F 81% 30.21 in 10.0 mi North 9.2 mph - N/A   Overcast
1:55 PM 41.0 °F 35.2 °F 35.6 °F 81% 30.21 in 10.0 mi North 9.2 mph - N/A   Overcast
2:15 PM 42.8 °F 37.0 °F 35.6 °F 76% 30.20 in 10.0 mi North 10.4 mph - N/A   Mostly Cloudy
2:35 PM 42.8 °F 37.0 °F 35.6 °F 76% 30.18 in 10.0 mi North 10.4 mph - N/A   Mostly Cloudy
2:55 PM 42.8 °F 36.2 °F 35.6 °F 76% 30.18 in 10.0 mi North 12.7 mph - N/A   Mostly Cloudy
3:15 PM 42.8 °F 36.6 °F 35.6 °F 76% 30.18 in 10.0 mi North 11.5 mph - N/A   Mostly Cloudy
3:35 PM 42.8 °F 37.5 °F 33.8 °F 70% 30.19 in 8.0 mi NNE 9.2 mph - N/A   Scattered Clouds
3:55 PM 42.8 °F 37.0 °F 35.6 °F 76% 30.18 in 9.0 mi North 10.4 mph - N/A   Partly Cloudy
4:15 PM 42.8 °F 36.6 °F 35.6 °F 76% 30.18 in 10.0 mi NNE 11.5 mph - N/A   Partly Cloudy
4:35 PM 42.8 °F 36.6 °F 35.6 °F 76% 30.18 in 8.0 mi NE 11.5 mph - N/A   Scattered Clouds
4:55 PM 42.8 °F 36.6 °F 35.6 °F 76% 30.19 in 9.0 mi NNE 11.5 mph - N/A   Mostly Cloudy
5:35 PM 41.0 °F 34.7 °F 35.6 °F 81% 30.19 in 10.0 mi NE 10.4 mph - N/A   Mostly Cloudy
5:55 PM 41.0 °F 35.2 °F 35.6 °F 81% 30.20 in 10.0 mi NE 9.2 mph - N/A   Scattered Clouds
6:15 PM 41.0 °F 35.2 °F 35.6 °F 81% 30.21 in 10.0 mi NE 9.2 mph - N/A   Overcast
6:35 PM 41.0 °F 37.1 °F 35.6 °F 81% 30.23 in 10.0 mi ENE 5.8 mph - N/A   Overcast
6:55 PM 41.0 °F 36.4 °F 35.6 °F 81% 30.23 in 10.0 mi NE 6.9 mph - N/A   Overcast
7:15 PM 41.0 °F 37.1 °F 35.6 °F 81% 30.24 in 10.0 mi NE 5.8 mph - N/A   Overcast
7:35 PM 41.0 °F 38.0 °F 35.6 °F 81% 30.24 in 10.0 mi NE 4.6 mph - N/A   Overcast
7:55 PM 41.0 °F 38.0 °F 35.6 °F 81% 30.24 in 10.0 mi ENE 4.6 mph - N/A   Overcast
8:15 PM 41.0 °F 38.0 °F 37.4 °F 87% 30.23 in 10.0 mi ENE 4.6 mph - N/A   Overcast
8:35 PM 41.0 °F 38.0 °F 35.6 °F 81% 30.24 in 10.0 mi ENE 4.6 mph - N/A   Overcast
8:55 PM 39.2 °F 35.9 °F 37.4 °F 93% 30.24 in 10.0 mi NE 4.6 mph - N/A   Overcast
9:15 PM 39.2 °F 35.0 °F 35.6 °F 87% 30.25 in 10.0 mi ENE 5.8 mph - N/A   Overcast
9:35 PM 39.2 °F 35.9 °F 35.6 °F 87% 30.25 in 10.0 mi NE 4.6 mph - N/A   Overcast
9:55 PM 39.2 °F 35.9 °F 35.6 °F 87% 30.26 in 10.0 mi NE 4.6 mph - N/A   Overcast
10:15 PM 39.2 °F 35.0 °F 35.6 °F 87% 30.26 in 10.0 mi NNE 5.8 mph - N/A   Overcast
10:55 PM 39.2 °F 34.2 °F 35.6 °F 87% 30.25 in 10.0 mi NNE 6.9 mph - N/A   Overcast
11:15 PM 39.2 °F 33.6 °F 33.8 °F 81% 30.26 in 10.0 mi NNE 8.1 mph - N/A   Overcast
11:55 PM 39.2 °F 34.2 °F 35.6 °F 87% 30.25 in 10.0 mi NNE 6.9 mph - N/A   Overcast